Location: Aulagny
(45.1643°N, 4.3096°E)
Time: 22:34:23
(UTC+00:00)

Cosmos 1459 Rocket - Pass Details

Date: 21 October 2019
Orbit: 938 x 999 km, 83.0° (Epoch: 21 November)

Event Time Altitude Azimuth Distance (km) Brightness Sun altitude
Rises 18:36:16 0° 353° (N) 3,664 7.2 -19.7°
Reaches altitude 10° 18:38:46 10° 355° (N) 2,722 6.4 -20.2°
Maximum altitude 18:45:01 72° 80° (E) 1,030 3.9 -21.3°
Drops below altitude 10° 18:51:18 10° 165° (SSE) 2,743 6.1 -22.4°
Sets 18:53:50 0° 168° (SSE) 3,694 6.8 -22.8°
